sat.trackr.live / text

‹ back to catalog

STARLINK-30849

NORAD 58245 · 2023-171R

PAYLOAD ACTIVE UNKNOWN

§ Identity

Operator
Country
US
Launch date
2023-11-08
Launch site
AFETR
Launch vehicle
Mass (kg)
RCS (m²)

Purposes: comms

External: N2YO · Heavens-Above · Gunter

§ Orbital elements

Epoch: 2026-05-25T04:28:27.533856Z

Period
94.27 min
Inclination
43.0052°
Eccentricity
0.0002275
Mean motion
15.27569849 rev/d
Perigee alt
481.5 km
Apogee alt
484.6 km
Semi-major
6,861.2 km
B*
1.1786e-4
RAAN
213.2179°
Arg perigee
277.1728°
Mean anomaly
82.8865°
Rev number
14,143

§ Raw data

STARLINK-308491 58245U 23171R   26145.18642979  .00002981  00000+0  11786-3 0  99972 58245  43.0052 213.2179 0002275 277.1728  82.8865 15.27569849141431

JSON: /api/v1/satellites/58245 · /tle

For live sub-satellite position, see the globe view (requires WebGL).

§ Visibility from observer

Set your observer location to see the next 7 days of passes ≥ 10°. The values pass through the URL so the page stays shareable.

No JS? Fill the form by hand. The geolocation button needs JavaScript.